Change the Weather History Date:

Friday, August 23, 2013

  Actual Average Record
Temperature  
Mean Temperature 82 °F 81 °F  
Max Temperature 92 °F 92 °F 103 °F (1924)
Min Temperature 71 °F 71 °F 54 °F (1956)
Degree Days  
Heating Degree Days 0 0  
Month to date heating degree days 0 0  
Since 1 June heating degree days 0 0  
Since 1 July heating degree days 0 0  
Cooling Degree Days 17 16  
Month to date cooling degree days 406 383  
Year to date cooling degree days 1647 1678  
Since 1 June cooling degree days 1329 1320  
Growing Degree Days 31 (Base 50)    
Moisture  
Dew Point 73 °F    
Average Humidity 76    
Maximum Humidity 100    
Minimum Humidity 52    
Precipitation  
Precipitation 0.13 in 0.12 in 2.46 in (2004)
Month to date precipitation 2.71 3.34  
Year to date precipitation 43.41 36.38  
Sea Level Pressure  
Sea Level Pressure 30.00 in    
Wind  
Wind Speed 3 mph (NE)    
Max Wind Speed 16 mph    
Max Gust Speed 22 mph    
Visibility 8 miles    
Events Rain , Thunderstorm    
T = Trace of Precipitation, MM = Missing Value Source: NWS Daily Summary

Daily Weather History Graph

Daily Weather History Graph

Search for Another Location

Airport or City:

Trip Planner

Search our weather history database for the weather conditions in past years. The results will help you decide how hot, cold, wet, or windy it might be!

Date:

Astronomy

Aug. 23, 2013 Rise Set
Actual Time 6:29 AM CDT 7:35 PM CDT
Civil Twilight 6:04 AM CDT 8:00 PM CDT
Nautical Twilight 5:34 AM CDT 8:30 PM CDT
Astronomical Twilight 5:03 AM CDT 9:01 PM CDT
Moon 9:09 PM CDT (8/23) 9:11 AM CDT (8/23)
Length of Visible Light 13h 56m
Length of Day
13h 05m
Waning Gibbous, 91% of the Moon is Illuminated
Aug 23
Waning Gibbous
Aug 28
Last Quarter
Sep 5
New
Sep 12
First Quarter
Sep 19
Full

Hourly Weather History & Observations

Time (CDT) Temp. Heat Index Dew Point Humidity Pressure Visibility Wind Dir Wind Speed Gust Speed Precip Events Conditions
12:54 AM 75.9 °F - 73.9 °F 94% 30.02 in 10.0 mi Calm Calm - N/A   Clear
1:54 AM 75.0 °F - 73.0 °F 94% 30.01 in 8.0 mi Calm Calm - N/A   Clear
2:54 AM 73.9 °F - 73.0 °F 97% 29.99 in 7.0 mi Calm Calm - N/A   Clear
3:54 AM 73.0 °F - 72.0 °F 96% 29.99 in 6.0 mi Calm Calm - N/A   Clear
4:02 AM 73.4 °F - 71.6 °F 94% 30.00 in 1.5 mi Calm Calm - N/A   Clear
4:16 AM 73.4 °F - 71.6 °F 94% 30.00 in 3.0 mi Calm Calm - N/A   Clear
4:54 AM 72.0 °F - 71.1 °F 97% 29.99 in 6.0 mi Calm Calm - N/A   Clear
5:54 AM 73.0 °F - 71.1 °F 93% 30.00 in 7.0 mi Calm Calm - N/A   Clear
6:54 AM 73.0 °F - 71.1 °F 93% 30.01 in 6.0 mi Calm Calm - N/A   Clear
7:54 AM 77.0 °F - 73.9 °F 90% 30.03 in 9.0 mi Calm Calm - N/A   Partly Cloudy
8:54 AM 82.0 °F 88.6 °F 75.0 °F 79% 30.04 in 10.0 mi Calm Calm - N/A   Clear
9:54 AM 86.0 °F 93.8 °F 73.9 °F 67% 30.04 in 10.0 mi NNE 4.6 mph - N/A   Partly Cloudy
10:54 AM 88.0 °F 95.6 °F 73.0 °F 61% 30.04 in 10.0 mi Variable 6.9 mph - N/A   Mostly Cloudy
11:54 AM 89.1 °F 97.0 °F 73.0 °F 59% 30.02 in 10.0 mi NNE 9.2 mph - N/A   Scattered Clouds
12:54 PM 90.0 °F 96.9 °F 72.0 °F 55% 30.01 in 10.0 mi East 6.9 mph - N/A   Scattered Clouds
1:54 PM 91.9 °F 99.5 °F 72.0 °F 52% 29.97 in 10.0 mi Variable 5.8 mph - N/A   Scattered Clouds
2:54 PM 91.0 °F 97.6 °F 71.1 °F 52% 29.96 in 10.0 mi Variable 3.5 mph - N/A   Mostly Cloudy
3:54 PM 84.0 °F 90.2 °F 73.0 °F 69% 29.98 in 6.0 mi NNE 10.4 mph 21.9 mph 0.00 in Rain Light Rain
4:12 PM 78.8 °F - 75.2 °F 89% 29.98 in 7.0 mi North 9.2 mph - 0.13 in Rain , Thunderstorm Light Thunderstorms and Rain
4:33 PM 80.6 °F 86.2 °F 75.2 °F 84% 29.98 in 10.0 mi NNE 4.6 mph - 0.13 in   Mostly Cloudy
4:54 PM 82.0 °F 89.4 °F 75.9 °F 82% 29.96 in 10.0 mi North 4.6 mph - 0.13 in   Mostly Cloudy
5:54 PM 84.9 °F 91.4 °F 73.0 °F 67% 29.95 in 10.0 mi Calm Calm - N/A   Mostly Cloudy
6:54 PM 82.9 °F 89.4 °F 73.9 °F 74% 29.95 in 10.0 mi NE 4.6 mph - N/A   Scattered Clouds
7:54 PM 78.1 °F - 75.0 °F 90% 29.96 in 10.0 mi NE 3.5 mph - N/A   Partly Cloudy
8:54 PM 79.0 °F - 73.9 °F 84% 29.99 in 10.0 mi East 6.9 mph - N/A   Partly Cloudy
9:54 PM 78.1 °F - 73.9 °F 87% 30.00 in 10.0 mi ENE 4.6 mph - N/A   Partly Cloudy
10:54 PM 77.0 °F - 73.9 °F 90% 30.01 in 10.0 mi Calm Calm - N/A   Clear
11:54 PM 75.9 °F - 73.0 °F 91% 30.00 in 10.0 mi South 3.5 mph - N/A   Clear